Simultaneous Nadir Overpasses (SNOs) Predictions

Prediction of SNOs between GOES-16 and NPP Satellite Orbit:

Table of predicted SNOs for the next 14.0 days since TLE Epoch: 11/25/2023
Index Date Time (GOES-16) GOES-16 Lat,Lon NPP Lat,Lon Distance(km) Time Diff (sec)
1 11/25/2023 18:39:46 -0.01, -75.23 -0.83, -78.77 403.90 80
2 11/26/2023 18:23:42 -0.01, -75.25 0.22, -74.24 115.56 80
3 11/28/2023 06:45:29 0.01, -75.28 0.94, -79.51 481.69 80
4 11/29/2023 06:24:04 0.01, -75.31 -0.06, -74.98 37.79 80
5 12/01/2023 18:27:14 -0.01, -75.40 -0.10, -75.75 40.58 80
6 12/02/2023 18:11:10 -0.01, -75.43 0.96, -71.23 479.75 80
7 12/04/2023 06:32:56 0.01, -75.48 0.24, -76.49 115.68 80
8 12/05/2023 06:11:31 0.01, -75.51 -0.77, -71.95 404.94 80
9 12/06/2023 18:33:27 -0.00, -75.58 -0.37, -77.27 191.81 80
10 12/07/2023 18:17:22 -0.01, -75.62 0.64, -72.73 329.46 80
